[[{"header":{"parameterUnit":"m.s-1","parameterCategory":1,"la1":30.2991,"la2":30.254,"lo1":-89.0895,"lo2":-89.0444,"dy":0.0017,"dx":0.0017,"nx":28,"ny":28,"refTime":"2024-04-30T09:00:00:Z","depth":0,"parameterNumber":2,"parameterNumberName":"U-component_of_WINDS"},"data":[0,0,0,0,0,0,0,0,0,0,0,0,0,0,0,0,0,0,0,0,0,0,0,0,0,0,0,0,0,0,0,0,0,0,0,0,0,0,0,0,0,0,0,0,0,0,0,0,0,0,0,0,0,0,0,0,0,0,-0.5263,-0.5263,0,-0.5249,-0.5249,-0.5249,-0.5241,-0.5241,-0.5241,-0.5241,-0.5227,-0.5227,-0.5226,0,0,0,0,0,0,0,0,0,0,0,0,0,-0.5285,-0.5285,-0.5263,-0.5263,-0.5263,-0.5249,-0.5249,-0.5249,-0.5241,-0.5241,-0.5241,-0.5241,-0.5227,-0.5227,-0.5226,0,0,0,0,0,0,0,0,0,0,0,0,0,-0.5274,-0.5285,-0.5263,-0.5257,-0.5257,-0.5249,-0.5249,-0.5249,-0.5241,-0.5241,-0.5241,-0.5241,-0.5227,-0.5227,-0.5226,-0.5224,0,0,-0.5225,-0.5225,0,0,0,0,0,0,0,0,-0.5275,-0.5273,-0.5258,-0.5258,-0.5257,-0.5247,-0.5252,-0.524,-0.5241,-0.5247,-0.5241,-0.5241,-0.5234,-0.5233,-0.523,-0.5223,-0.5222,-0.5225,-0.5224,-0.5224,-0.5224,0,0,0,0,0,0,0,-0.5275,-0.5274,-0.5258,-0.5258,-0.5257,-0.5256,-0.5254,-0.5249,-0.5241,-0.5247,-0.5246,-0.5244,-0.5233,-0.5231,-0.523,-0.5222,-0.5225,-0.5224,-0.5224,-0.5224,-0.5214,-0.5214,0,0,0,0,0,0,-0.5277,-0.5274,-0.5258,-0.5257,-0.5266,-0.5256,-0.5254,-0.525,-0.5241,-0.5239,-0.5244,-0.5244,-0.5232,-0.523,-0.5229,-0.5226,-0.5224,-0.5224,-0.5223,-0.5214,-0.5214,-0.5214,0,0,0,0,0,0,-0.5277,-0.5276,-0.5259,-0.5266,-0.5263,-0.5255,-0.5251,-0.525,-0.5247,-0.5239,-0.5238,-0.5243,-0.5232,-0.523,-0.5225,-0.5226,-0.5223,-0.5223,-0.5214,-0.5214,-0.5214,-0.522,0,0,0,0,0,0,-0.5278,-0.5276,-0.5274,-0.5266,-0.5263,-0.5255,-0.5251,-0.525,-0.5246,-0.5246,-0.5238,-0.5236,-0.5231,-0.5226,-0.5225,-0.5225,-0.5223,-0.5214,-0.5214,-0.5214,-0.522,-0.522,-0.5221,0,0,0,0,0,-0.5279,-0.5276,-0.5274,-0.5272,-0.5261,-0.5255,-0.5253,-0.5247,-0.5246,-0.5245,-0.524,-0.5236,-0.5226,-0.5226,-0.5224,-0.5224,-0.5214,-0.5214,-0.5214,-0.5219,-0.522,-0.5221,0,0,0,0,0,0,-0.5284,-0.5275,-0.5272,-0.5267,-0.5262,-0.5253,-0.5251,-0.5248,-0.5243,-0.5243,-0.5236,-0.5235,-0.5231,-0.5227,-0.5227,-0.5222,-0.522,-0.5219,-0.5224,-0.5225,-0.5225,-0.5226,-0.5222,0,0,0,0,0,-0.5285,-0.528,-0.5272,-0.5268,-0.5266,-0.5259,-0.5256,-0.5252,-0.5247,-0.5245,-0.5239,-0.5234,-0.523,-0.5227,-0.5223,-0.5219,-0.5218,-0.5219,-0.5219,-0.522,-0.522,-0.5219,-0.5219,-0.5215,-0.5215,-0.5215,0,0,-0.5286,-0.528,-0.5278,-0.5269,-0.5265,-0.5261,-0.5257,-0.5253,-0.525,-0.5244,-0.5239,-0.5236,-0.523,-0.5226,-0.5224,-0.5223,-0.5221,-0.522,-0.522,-0.522,-0.5219,-0.5219,-0.522,-0.5215,-0.5215,-0.5215,0,0,-0.5286,-0.5281,-0.5277,-0.5273,-0.5267,-0.5263,-0.5262,-0.5254,-0.5252,-0.5247,-0.5243,-0.524,-0.5233,-0.5229,-0.5226,-0.5227,-0.5224,-0.5226,-0.5228,-0.5228,-0.5228,-0.5228,-0.5229,-0.523,-0.5226,-0.5226,-0.5226,0,-0.5288,-0.5281,-0.5276,-0.5272,-0.5269,-0.5264,-0.5261,-0.5257,-0.525,-0.5248,-0.5247,-0.5238,-0.5234,-0.523,-0.523,-0.5228,-0.5228,-0.5226,-0.5228,-0.5229,-0.5229,-0.523,-0.523,-0.5226,-0.5226,-0.5226,-0.5226,0,-0.5285,-0.528,-0.5278,-0.5272,-0.5268,-0.5265,-0.526,-0.5257,-0.5255,-0.5251,-0.5247,-0.5242,-0.5237,-0.5236,-0.5233,-0.5232,-0.5232,-0.5229,-0.5227,-0.523,-0.523,-0.5231,-0.5226,-0.5226,-0.5226,-0.5226,0,0,-0.5286,-0.5278,-0.5277,-0.5275,-0.5268,-0.5265,-0.5262,-0.5257,-0.5256,-0.5251,-0.5249,-0.5244,-0.5242,-0.5239,-0.5236,-0.5235,-0.5238,-0.5233,-0.5233,-0.5235,-0.5237,-0.5239,-0.524,-0.5236,-0.5236,-0.5236,-0.5238,0,-0.5285,-0.5279,-0.5275,-0.5271,-0.5268,-0.5264,-0.5262,-0.5258,-0.5255,-0.5252,-0.5249,-0.5245,-0.5243,-0.5242,-0.5241,-0.5237,-0.5238,-0.5237,-0.5234,-0.5234,-0.5236,-0.524,-0.5241,-0.5244,-0.5238,-0.5238,-0.5238,0,-0.5283,-0.5279,-0.5275,-0.527,-0.5268,-0.5266,-0.5263,-0.526,-0.5256,-0.5254,-0.5252,-0.5249,-0.5246,-0.5245,-0.5242,-0.5242,-0.5241,-0.5239,-0.5239,-0.5238,-0.5236,-0.524,-0.5244,-0.5245,-0.5239,-0.5239,-0.5239,0,-0.5285,-0.5279,-0.5276,-0.5274,-0.5268,-0.5267,-0.5264,-0.5261,-0.5259,-0.5256,-0.5255,-0.5251,-0.525,-0.5248,-0.5244,-0.5243,-0.5243,-0.524,-0.5241,-0.5242,-0.5241,-0.5241,-0.5246,-0.524,-0.524,-0.524,-0.524,0,-0.5284,-0.5282,-0.5277,-0.5275,-0.5273,-0.5269,-0.5267,-0.5264,-0.5261,-0.526,-0.5256,-0.5255,-0.525,-0.5249,-0.5246,-0.5245,-0.5244,-0.5243,-0.5242,-0.5243,-0.5244,-0.5242,-0.5242,-0.524,-0.524,-0.524,-0.524,0,-0.5286,-0.5282,-0.5279,-0.5274,-0.5273,-0.5272,-0.5268,-0.5267,-0.5264,-0.5262,-0.5261,-0.5258,-0.5256,-0.5252,-0.5249,-0.5248,-0.5247,-0.5246,-0.5248,-0.5248,-0.525,-0.525,-0.5253,-0.5254,-0.5248,-0.5248,-0.5248,0,-0.5286,-0.5284,-0.5279,-0.5278,-0.5276,-0.5274,-0.5272,-0.5269,-0.5267,-0.5264,-0.5263,-0.5261,-0.5259,-0.5256,-0.5253,-0.5251,-0.525,-0.5252,-0.525,-0.5251,-0.5251,-0.5251,-0.5251,-0.5252,-0.5252,-0.5252,-0.5252,0,-0.5286,-0.5284,-0.5282,-0.5279,-0.5278,-0.5275,-0.5273,-0.5272,-0.5268,-0.5267,-0.5265,-0.5264,-0.5261,-0.526,-0.5258,-0.5256,-0.5254,-0.5253,-0.5253,-0.5254,-0.5256,-0.5256,-0.525,-0.5253,-0.5253,-0.5253,-0.5253,-0.5253,-0.5286,-0.5285,-0.5282,-0.528,-0.5278,-0.5277,-0.5275,-0.5273,-0.5272,-0.5269,-0.5268,-0.5266,-0.5264,-0.5261,-0.526,-0.5259,-0.5258,-0.5259,-0.5259,-0.5259,-0.5259,-0.5256,-0.5259,-0.5259,-0.5259,-0.5259,-0.5259,0,-0.5287,-0.5285,-0.5283,-0.528,-0.5279,-0.5278,-0.5276,-0.5275,-0.5273,-0.5272,-0.527,-0.5269,-0.5268,-0.5266,-0.5264,-0.5264,-0.5264,-0.5264,-0.5264,-0.5264,-0.526,-0.526,-0.5265,-0.5265,-0.5265,-0.5265,-0.5265,-0.5265,-0.5287,-0.5285,-0.5284,-0.5282,-0.528,-0.5279,-0.5278,-0.5277,-0.5275,-0.5274,-0.5273,-0.5272,-0.527,-0.5269,-0.5269,-0.5268,-0.5268,-0.5269,-0.5268,-0.5265,-0.5264,-0.5264,-0.5264,-0.5269,-0.5269,-0.5272,-0.5273,-0.5273]},{"header":{"parameterUnit":"m.s-1","parameterCategory":1,"la1":30.2991,"la2":30.254,"lo1":-89.0895,"lo2":-89.0444,"dy":0.0017,"dx":0.0017,"nx":28,"ny":28,"refTime":"2024-04-30T09:00:00:Z","depth":0,"parameterNumber":3,"parameterNumberName":"V-component_of_WINDS"},"data":[0,0,0,0,0,0,0,0,0,0,0,0,0,0,0,0,0,0,0,0,0,0,0,0,0,0,0,0,0,0,0,0,0,0,0,0,0,0,0,0,0,0,0,0,0,0,0,0,0,0,0,0,0,0,0,0,0,0,2.8615,2.8615,0,2.8603,2.8603,2.8603,2.8593,2.8593,2.8593,2.8593,2.858,2.8579,2.8579,0,0,0,0,0,0,0,0,0,0,0,0,0,2.8628,2.8628,2.8615,2.8615,2.8615,2.8603,2.8603,2.8603,2.8593,2.8593,2.8593,2.8593,2.858,2.8579,2.8579,0,0,0,0,0,0,0,0,0,0,0,0,0,2.862,2.8628,2.8615,2.8608,2.8608,2.8603,2.8603,2.8603,2.8593,2.8593,2.8593,2.8593,2.858,2.8579,2.8579,2.8579,0,0,2.8578,2.8578,0,0,0,0,0,0,0,0,2.8621,2.862,2.861,2.8609,2.8608,2.8599,2.8603,2.8595,2.8593,2.8599,2.8593,2.8593,2.8586,2.8585,2.8583,2.8579,2.8578,2.8578,2.8578,2.8577,2.8577,0,0,0,0,0,0,0,2.8621,2.862,2.861,2.8609,2.8609,2.8606,2.8605,2.8601,2.8593,2.8598,2.8597,2.8596,2.8586,2.8584,2.8583,2.8578,2.8578,2.8577,2.8577,2.8577,2.8573,2.8574,0,0,0,0,0,0,2.8623,2.8621,2.8611,2.861,2.8614,2.8606,2.8604,2.8602,2.8593,2.8592,2.8596,2.8596,2.8584,2.8583,2.8582,2.8583,2.8577,2.8577,2.8577,2.8573,2.8573,2.8574,0,0,0,0,0,0,2.8623,2.8622,2.8611,2.8615,2.8613,2.8606,2.8604,2.8602,2.86,2.8592,2.859,2.8596,2.8584,2.8583,2.858,2.8582,2.8577,2.8576,2.8573,2.8573,2.8574,2.8583,0,0,0,0,0,0,2.8624,2.8622,2.8623,2.8615,2.8613,2.861,2.8604,2.8602,2.86,2.8599,2.8591,2.859,2.8584,2.8581,2.858,2.8581,2.8576,2.8573,2.8573,2.8573,2.8582,2.8583,2.8584,0,0,0,0,0,2.8624,2.8625,2.8623,2.8622,2.8614,2.861,2.8609,2.8602,2.86,2.86,2.8595,2.859,2.8582,2.8581,2.858,2.8581,2.8573,2.8573,2.8573,2.8582,2.8583,2.8584,0,0,0,0,0,0,2.8633,2.8624,2.8621,2.862,2.8616,2.8608,2.8608,2.8604,2.86,2.8599,2.8591,2.859,2.8588,2.8584,2.8583,2.8581,2.8577,2.8577,2.8584,2.8585,2.8586,2.8587,2.8576,0,0,0,0,0,2.8635,2.8633,2.8625,2.8625,2.8623,2.8616,2.8614,2.861,2.8605,2.8603,2.8597,2.8592,2.8589,2.8586,2.8583,2.8582,2.858,2.8582,2.8583,2.8584,2.8584,2.8583,2.8584,2.8575,2.8575,2.8575,0,0,2.8638,2.8634,2.8633,2.8627,2.8623,2.862,2.8614,2.8612,2.861,2.8602,2.86,2.8595,2.8589,2.8588,2.8586,2.8584,2.8586,2.8584,2.8585,2.8584,2.8583,2.8584,2.8585,2.8575,2.8575,2.8575,0,0,2.8644,2.864,2.864,2.8636,2.863,2.8626,2.8626,2.8618,2.8616,2.8613,2.8607,2.8604,2.8598,2.8594,2.8591,2.8595,2.8591,2.8594,2.8599,2.8599,2.8599,2.86,2.8602,2.8602,2.8595,2.8595,2.8595,0,2.8649,2.8646,2.864,2.8638,2.8636,2.8628,2.8628,2.8624,2.8618,2.8616,2.8613,2.8606,2.8601,2.8598,2.86,2.8597,2.8597,2.8595,2.86,2.86,2.8601,2.8602,2.8603,2.8595,2.8595,2.8595,2.8595,0,2.8653,2.865,2.8651,2.8645,2.8642,2.8641,2.8634,2.8632,2.8628,2.8624,2.8621,2.8615,2.861,2.8609,2.8605,2.8606,2.8605,2.8601,2.8597,2.8602,2.8603,2.8604,2.8596,2.8596,2.8595,2.8595,0,0,2.8664,2.8654,2.8655,2.8652,2.8645,2.8643,2.8641,2.8637,2.8636,2.8631,2.8629,2.8624,2.8621,2.8618,2.8613,2.8613,2.8616,2.8609,2.8609,2.8611,2.8617,2.862,2.8621,2.8613,2.8613,2.8613,2.8618,0,2.8668,2.8665,2.866,2.8658,2.8656,2.865,2.8648,2.8644,2.8639,2.8637,2.8632,2.8629,2.8624,2.8622,2.8621,2.8616,2.8618,2.8616,2.8612,2.8612,2.8614,2.8622,2.8625,2.8629,2.8618,2.8618,2.8618,0,2.8673,2.867,2.8668,2.8662,2.8661,2.866,2.8655,2.8653,2.8647,2.8644,2.8641,2.8636,2.8633,2.863,2.8626,2.8625,2.8623,2.862,2.862,2.862,2.8615,2.8621,2.863,2.8631,2.8619,2.8619,2.8619,0,2.8682,2.8676,2.8675,2.8673,2.8665,2.8664,2.8661,2.8656,2.8654,2.8649,2.8648,2.8643,2.8641,2.8637,2.8631,2.8629,2.8628,2.8624,2.8626,2.8626,2.8626,2.8626,2.8635,2.8624,2.8624,2.8624,2.8624,0,2.8687,2.8687,2.8678,2.8678,2.8677,2.867,2.867,2.8666,2.8661,2.8659,2.8653,2.8651,2.8643,2.864,2.8635,2.8633,2.8632,2.8629,2.8628,2.863,2.863,2.8629,2.8628,2.8625,2.8625,2.8625,2.8625,0,2.8697,2.8691,2.8689,2.8682,2.868,2.868,2.8674,2.8673,2.8668,2.8666,2.8665,2.8658,2.8654,2.8647,2.8642,2.8638,2.8638,2.8635,2.864,2.8639,2.8641,2.8641,2.8649,2.865,2.8639,2.8639,2.8639,0,2.8701,2.87,2.8693,2.8692,2.8689,2.8687,2.8684,2.8678,2.8676,2.867,2.8669,2.8665,2.8662,2.8656,2.865,2.8646,2.8644,2.8647,2.8643,2.8645,2.8644,2.8644,2.8644,2.8648,2.8648,2.8648,2.8648,0,2.8709,2.8706,2.8703,2.87,2.8697,2.8694,2.869,2.8689,2.8682,2.8679,2.8676,2.8673,2.8668,2.8664,2.8659,2.8655,2.865,2.8649,2.865,2.8652,2.8654,2.8653,2.8642,2.8649,2.8649,2.8649,2.8649,2.8649,2.8716,2.8715,2.8711,2.8708,2.8704,2.8701,2.87,2.8695,2.8692,2.8687,2.8684,2.868,2.8675,2.8668,2.8664,2.8662,2.8659,2.866,2.866,2.866,2.8661,2.8655,2.8661,2.8661,2.8661,2.866,2.866,0,2.8724,2.8721,2.8718,2.8713,2.8711,2.8707,2.8703,2.8701,2.8698,2.8694,2.8691,2.8687,2.8683,2.8677,2.8673,2.8672,2.8669,2.8671,2.8671,2.867,2.8663,2.8664,2.8673,2.8673,2.8673,2.8673,2.8673,2.8673,2.8728,2.8727,2.8724,2.8721,2.8717,2.8714,2.8712,2.8709,2.8706,2.8702,2.8699,2.8695,2.869,2.8685,2.8681,2.868,2.8678,2.8681,2.8678,2.8672,2.8671,2.867,2.867,2.868,2.868,2.8686,2.8686,2.8686]}]]